Location: Newark
(31.5350°N, 35.0986°E)
Time: 09:49:04
(UTC+00:00)

Explorer 7 - Pass Details

Date: 18 October 2019
Orbit: 485 x 680 km, 50.3° (Epoch: 21 November)

Event Time Altitude Azimuth Distance (km) Brightness Sun altitude
Rises 09:51:58 0° 261° (W) 2,547 10.4 48.4°
Reaches altitude 10° 09:54:34 10° 278° (W) 1,661 9.4 48.3°
Maximum altitude 09:57:23 20° 328° (NNW) 1,173 8.4 48.1°
Drops below altitude 10° 10:00:13 10° 17° (NNE) 1,672 9.0 48.0°
Sets 10:02:51 0° 34° (NE) 2,571 9.9 47.9°
